Mountain Home, AR

1:12 PM CDT on October 19, 2019 (GMT -0500)
Baxter County Regional

Weather History for KBPK - August, 2019

Change the Weather History Date:

Saturday, August 3, 2019

  Actual Average (KFLP) Record (KFLP)
Temperature  
Mean Temperature 78 °F -  
Max Temperature 88 °F 88 °F 111 °F (2011)
Min Temperature 70 °F 66 °F 62 °F (2014)
Cooling Degree Days 13    
Growing Degree Days 28 (Base 50)    
Moisture  
Dew Point 67 °F    
Average Humidity 72    
Maximum Humidity 97    
Minimum Humidity 33    
Precipitation  
Precipitation 0.01 in - - ()
Sea Level Pressure  
Sea Level Pressure 29.98 in    
Wind  
Wind Speed 2 mph (ESE)    
Max Wind Speed 6 mph    
Max Gust Speed -    
Visibility 10 miles    
Events      
Averages and records for this station are not official NWS values.
T = Trace of Precipitation, MM = Missing Value Source: NWS Daily Summary

Daily Weather History Graph

Daily Weather History Graph

Search for Another Location

Airport or City:

Astronomy

Aug. 03, 2019 Rise Set
Actual Time 6:17 AM CDT 8:13 PM CDT
Civil Twilight 5:49 AM CDT 8:41 PM CDT
Nautical Twilight 5:15 AM CDT 9:16 PM CDT
Astronomical Twilight 4:38 AM CDT 9:52 PM CDT
Moon 9:07 AM CDT (8/3) 10:24 PM CDT (8/3)
Length of Visible Light 14h 52m
Length of Day
13h 55m
Waxing Crescent, 10% of the Moon is Illuminated
Aug 3
Waxing Crescent
Aug 7
First Quarter
Aug 15
Full
Aug 23
Last Quarter
Aug 30
New

Hourly Weather History & Observations

Time (CDT) Temp. Heat Index Dew Point Humidity Pressure Visibility Wind Dir Wind Speed Gust Speed Precip Events Conditions
12:53 AM 75.0 °F - 70.0 °F 84% 30.02 in 10.0 mi Calm Calm - N/A   Overcast
1:53 AM 73.9 °F - 69.1 °F 85% 30.01 in 10.0 mi SE 3.5 mph - N/A   Scattered Clouds
2:53 AM 71.1 °F - 69.1 °F 93% 29.99 in 10.0 mi SE 3.5 mph - N/A   Clear
3:53 AM 71.1 °F - 69.1 °F 93% 29.99 in 10.0 mi Calm Calm - N/A   Clear
4:53 AM 71.1 °F - 70.0 °F 96% 29.98 in 10.0 mi Calm Calm - N/A   Partly Cloudy
5:53 AM 70.0 °F - 69.1 °F 97% 29.98 in 9.0 mi Calm Calm - 0.00 in   Clear
6:53 AM 70.0 °F - 69.1 °F 97% 29.99 in 9.0 mi Calm Calm - N/A   Clear
7:53 AM 72.0 °F - 70.0 °F 93% 30.01 in 9.0 mi Calm Calm - 0.01 in   Partly Cloudy
8:53 AM 73.9 °F - 70.0 °F 87% 30.02 in 10.0 mi ENE 5.8 mph - N/A   Clear
9:53 AM 77.0 °F - 66.9 °F 71% 30.01 in 10.0 mi SE 4.6 mph - N/A   Clear
10:53 AM 80.1 °F 82.1 °F 66.0 °F 62% 30.01 in 10.0 mi NE 3.5 mph - N/A   Clear
11:53 AM 82.0 °F 83.4 °F 64.0 °F 54% 30.00 in 10.0 mi Variable 3.5 mph - N/A   Clear
12:53 PM 84.0 °F 84.4 °F 61.0 °F 46% 29.99 in 10.0 mi Variable 4.6 mph - N/A   Clear
1:53 PM 84.9 °F 83.7 °F 55.9 °F 37% 29.98 in 10.0 mi Calm Calm - N/A   Clear
2:53 PM 86.0 °F 84.2 °F 54.0 °F 33% 29.96 in 10.0 mi SSW 5.8 mph - N/A   Partly Cloudy
3:53 PM 86.0 °F 86.3 °F 62.1 °F 44% 29.94 in 10.0 mi Calm Calm - N/A   Clear
4:53 PM 84.9 °F 85.9 °F 63.0 °F 48% 29.93 in 10.0 mi SSE 3.5 mph - N/A   Clear
5:53 PM 84.0 °F 86.5 °F 66.9 °F 56% 29.93 in 10.0 mi Calm Calm - N/A   Clear
6:53 PM 80.1 °F 83.8 °F 72.0 °F 76% 29.93 in 10.0 mi Calm Calm - N/A   Mostly Cloudy
7:53 PM 79.0 °F - 69.1 °F 72% 29.93 in 10.0 mi Calm Calm - N/A   Scattered Clouds
8:53 PM 75.9 °F - 69.1 °F 79% 29.94 in 10.0 mi Calm Calm - N/A   Clear
9:53 PM 75.9 °F - 68.0 °F 76% 29.96 in 10.0 mi Calm Calm - N/A   Clear
10:53 PM 75.9 °F - 68.0 °F 76% 29.96 in 10.0 mi Calm Calm - N/A   Clear
11:53 PM 73.9 °F - 68.0 °F 82% 29.97 in 10.0 mi ENE 4.6 mph - N/A   Clear